Theta_e
345 336 329 320 306 303 298 302 309 312 314 320 325 322 319 320 315 307 333 337 341 344 348 352 356 356 355 354 354 353 352 352 351 351 351 350 350 349 350 350 351 351 351 350 349 346 345 344 343
338 334 323 312 302 297 299 305 307 313 318 323 324 322 321 317 329 328 330 342 342 346 347 349 356 356 355 354 353 353 352 352 351 350 349 349 349 349 349 349 350 350 349 349 348 345 343 343 342
334 329 314 306 300 298 299 306 310 316 320 321 320 324 322 321 330 329 333 343 346 345 347 349 356 356 355 354 354 353 352 352 351 350 350 350 350 350 351 351 350 349 347 347 346 346 344 344 344
325 317 313 305 301 305 307 310 315 316 316 321 320 315 324 332 330 333 343 345 343 344 345 352 357 356 355 354 354 354 352 352 352 351 351 351 351 351 351 351 351 349 345 345 346 349 349 347 346
315 312 305 303 303 307 311 311 316 313 316 318 319 315 320 329 337 340 342 343 341 342 343 349 357 355 355 354 354 353 352 352 352 351 351 351 351 352 352 352 352 351 348 348 349 350 351 349 348
304 309 302 298 304 311 312 313 316 314 317 318 316 315 317 332 335 337 340 339 340 341 342 345 355 356 357 356 355 355 355 353 351 351 352 351 351 351 352 353 354 352 351 349 349 350 350 345 346
301 302 299 302 304 308 311 316 315 315 317 317 319 313 319 329 333 337 335 336 338 340 341 344 347 351 355 357 357 356 355 354 354 354 353 351 350 353 353 352 353 352 352 350 351 348 346 341 342
306 303 301 303 305 306 312 314 317 316 317 324 324 313 314 324 334 334 333 335 337 338 341 341 343 347 345 349 355 356 355 354 354 353 352 352 349 347 349 352 350 351 351 350 344 340 337 335 334
304 297 295 303 305 306 310 309 314 320 319 322 324 321 323 332 335 332 333 335 337 340 340 342 342 342 344 346 349 355 354 353 354 352 350 344 338 337 340 343 347 351 351 343 338 334 333 329 329
300 294 297 305 311 308 312 310 313 314 318 318 321 325 328 333 333 331 332 331 334 336 338 339 341 343 343 347 346 347 348 348 347 340 337 333 333 337 339 343 348 348 344 336 333 331 328 322 319
297 296 300 304 313 312 312 310 313 314 312 316 319 322 327 330 331 332 334 332 331 336 337 339 339 340 342 343 343 345 346 344 339 336 334 333 335 335 328 327 327 330 329 322 322 320 319 318 318
295 301 303 305 314 312 311 313 311 315 316 320 323 325 326 329 330 329 326 329 334 336 339 339 339 338 339 338 338 343 343 341 336 333 332 332 331 334 329 325 324 324 321 322 322 320 320 318 318
296 300 303 307 310 311 314 311 311 310 316 319 325 326 324 322 328 331 333 335 335 335 336 336 339 337 339 339 339 339 341 340 336 333 333 332 330 331 330 324 322 323 322 321 320 319 319 318 317
301 303 304 309 309 311 311 310 310 313 318 323 324 323 323 328 330 327 327 326 329 332 333 336 338 337 337 337 339 339 340 340 335 333 333 332 330 329 331 324 323 324 322 321 319 320 319 317 316
303 301 305 307 309 310 314 308 310 313 320 321 321 322 325 325 328 328 329 327 329 332 334 334 334 336 334 335 332 339 340 340 336 334 333 333 332 330 331 327 322 322 321 320 319 318 317 317 316
302 301 297 303 310 311 309 301 305 310 319 319 320 322 323 326 329 330 330 329 330 330 328 330 336 337 335 330 331 334 338 338 336 335 334 334 334 334 331 326 323 323 322 320 319 317 316 315 314
297 296 297 301 308 310 306 302 310 315 318 317 317 320 322 325 330 331 329 327 328 328 328 326 327 327 328 330 330 333 338 336 335 334 334 334 334 334 329 327 325 324 322 320 319 318 315 314 313
293 294 298 297 304 308 305 305 310 315 316 315 317 319 322 324 327 333 334 334 328 326 327 331 333 334 334 333 333 332 331 331 333 332 331 330 329 330 328 325 324 323 322 320 318 315 314 313 312
299 298 297 300 305 305 302 304 307 313 314 314 315 319 321 323 327 329 333 333 332 329 328 326 329 326 325 332 329 329 328 329 330 330 331 330 329 328 327 325 323 322 319 317 317 314 311 310 309
300 297 296 303 307 305 302 301 306 309 310 313 316 318 320 322 323 326 327 329 327 326 327 325 323 323 322 331 332 331 331 330 329 325 321 322 323 326 327 324 322 320 318 316 314 312 310 312 310
297 297 296 302 303 303 301 300 301 306 308 317 318 318 321 322 322 325 327 323 321 321 323 323 323 324 326 323 329 330 330 327 321 321 320 321 321 319 318 319 319 316 315 314 313 313 310 310 312
297 303 302 302 297 294 300 290 298 301 306 313 315 316 320 322 324 325 323 320 321 323 325 323 326 326 328 323 324 325 322 317 318 318 319 318 318 318 318 316 315 315 316 315 315 315 313 312 308
301 304 302 301 297 296 298 293 296 300 301 307 313 319 321 322 322 323 323 324 326 324 323 324 324 325 324 326 323 321 317 317 317 316 314 314 315 316 315 315 314 313 313 312 312 312 311 310 309
306 301 299 297 295 291 294 294 294 296 300 306 313 317 319 320 322 323 322 321 321 321 321 322 322 319 320 319 318 316 314 313 312 311 310 311 312 313 311 311 311 310 310 311 311 311 310 310 310
300 295 289 290 289 289 295 294 294 301 305 309 310 313 315 316 315 316 315 315 317 317 318 319 316 314 315 315 315 314 312 310 308 308 308 307 307 307 308 308 307 307 308 309 310 310 309 309 308
299 295 290 286 287 290 296 290 295 306 309 311 312 313 314 314 314 315 315 314 313 314 314 314 313 313 313 312 310 310 309 308 308 307 306 305 305 306 307 307 307 307 307 308 309 308 308 310 310
300 297 298 292 290 289 291 296 302 306 307 308 309 310 309 311 312 312 313 313 314 313 312 313 312 311 310 310 309 308 308 307 306 306 306 305 305 307 307 306 306 307 309 309 309 309 310 310 310
302 304 294 292 286 285 290 291 292 301 303 306 307 308 307 310 311 312 312 313 313 312 312 312 310 309 309 308 307 307 306 306 305 304 304 304 304 305 305 306 306 307 307 305 305 306 307 308 308
299 298 296 294 291 287 286 290 299 301 304 304 306 308 308 310 310 311 312 312 312 312 310 309 309 309 307 307 306 305 305 305 304 304 303 304 304 305 305 305 306 306 305 305 305 306 308 308 308
302 298 295 291 290 290 290 291 305 304 305 307 307 310 308 309 310 310 310 312 312 311 310 309 309 308 307 306 305 304 304 303 303 303 304 305 305 305 305 305 305 305 305 305 305 305 307 307 307
Wind_Speed
6 5 3 3 5 6 4 2 3 1 1 1 6 4 5 3 4 4 3 4 10 12 9 11 14 13 11 9 8 7 6 5 5 5 5 4 3 3 3 2 2 3 5 6 7 8 9 10 11
5 3 3 2 7 5 6 4 1 3 1 7 5 3 1 1 2 4 5 5 9 12 7 7 14 13 11 10 8 7 6 5 4 4 3 2 1 2 2 2 3 3 4 5 5 7 8 9 10
4 2 3 6 4 3 4 4 2 2 5 3 3 2 3 1 3 6 4 11 11 9 6 7 14 13 12 11 10 9 7 6 5 4 2 1 1 3 3 4 4 4 4 5 6 7 7 9 10
3 3 4 5 3 5 5 4 2 1 1 4 4 5 3 3 7 5 10 11 11 8 7 11 15 14 13 13 11 11 9 8 7 6 5 5 5 4 5 5 6 6 5 6 7 7 7 8 10
3 3 5 4 5 3 4 3 6 2 0 2 2 1 4 1 7 11 12 11 11 9 7 8 16 14 13 12 12 10 8 7 7 6 5 4 4 5 6 7 7 6 4 5 7 8 8 8 9
4 3 5 2 4 4 5 5 5 2 3 1 4 3 3 2 6 8 9 10 8 9 5 4 13 13 12 12 12 11 10 9 7 6 5 4 5 6 7 8 8 7 6 8 10 8 7 8 9
5 5 3 2 4 7 3 6 5 3 1 3 6 4 2 2 1 9 8 7 5 5 5 5 5 10 15 13 12 10 8 7 7 6 5 4 5 6 6 7 7 7 6 8 9 7 8 10 11
6 6 3 3 4 8 3 5 7 4 5 2 3 4 3 5 7 6 6 6 5 2 4 5 5 7 7 7 13 10 9 8 7 5 3 4 5 6 7 7 6 6 4 5 8 7 9 10 11
4 5 2 6 7 7 1 4 1 3 3 2 6 5 5 11 11 7 5 4 5 4 3 3 4 6 6 4 5 8 11 10 8 5 1 2 2 4 7 8 10 6 2 8 7 6 9 9 9
5 4 9 8 8 7 7 5 8 3 4 5 3 5 7 13 10 9 5 4 4 8 7 7 10 12 11 10 4 4 5 2 1 2 1 2 4 4 6 6 10 6 8 8 7 7 7 7 3
4 6 7 8 11 6 8 4 6 7 4 7 10 10 9 9 9 6 5 8 7 7 9 2 6 7 3 7 8 5 2 1 1 1 1 3 3 2 2 2 1 3 6 3 3 2 2 3 2
1 8 5 5 7 7 11 5 4 8 9 7 10 11 8 8 7 8 9 6 8 5 6 4 7 4 8 5 7 7 4 2 3 3 4 2 2 2 2 2 1 2 3 4 2 1 1 3 2
4 5 3 6 2 8 9 6 5 8 8 2 8 9 9 10 11 9 8 7 5 4 2 3 6 5 6 2 7 6 7 5 4 3 3 3 3 3 3 3 2 2 2 2 2 2 1 1 2
4 3 4 7 6 5 6 2 2 7 2 5 8 10 11 10 8 7 7 6 4 2 3 5 9 9 11 6 10 6 7 8 3 4 4 5 3 4 3 3 3 2 2 2 2 2 2 1 2
2 4 7 5 3 3 6 2 5 8 5 7 10 13 13 10 8 8 2 4 4 3 2 5 9 2 6 6 3 8 9 8 6 4 4 5 4 4 4 4 4 3 2 3 0 1 0 0 1
5 6 5 5 3 7 6 3 6 10 7 7 12 14 11 8 7 5 3 1 4 3 5 7 2 4 5 5 4 7 11 9 5 3 3 5 5 5 4 4 4 3 3 1 0 2 3 3 2
9 2 4 5 8 3 7 6 9 9 2 9 11 11 9 6 4 4 3 4 6 7 5 6 5 5 7 7 8 11 10 7 4 3 2 4 4 4 3 3 3 3 2 1 2 2 3 2 1
3 3 4 5 6 13 6 7 8 9 9 10 8 7 7 5 4 1 3 6 6 6 7 6 6 6 5 4 6 4 3 4 3 3 4 5 4 6 4 3 3 3 3 2 2 3 1 1 3
3 2 5 2 4 9 4 7 9 8 9 9 5 4 7 5 2 1 6 3 3 5 10 8 8 7 6 3 4 4 4 3 2 3 5 6 5 4 4 4 4 3 2 3 4 2 1 1 0
4 6 4 3 3 12 12 12 6 8 4 7 4 3 6 4 2 3 1 3 8 8 7 7 6 7 4 3 3 3 3 1 2 3 8 9 8 6 4 3 4 3 1 4 3 2 1 2 3
2 1 4 10 1 6 5 14 10 7 9 12 11 5 4 5 3 4 7 8 7 4 3 6 6 6 4 3 2 2 1 2 4 4 3 5 7 6 5 3 1 1 1 1 1 2 3 3 2
4 6 5 9 4 2 2 2 7 9 8 14 11 6 4 2 3 4 8 8 8 8 8 8 7 6 4 5 2 6 3 3 2 1 3 4 5 5 5 5 5 5 3 4 3 3 3 2 4
2 7 6 5 6 5 11 7 8 6 9 8 10 5 4 5 7 8 7 6 8 8 7 7 8 7 4 9 10 6 5 3 3 3 5 5 5 6 8 7 6 5 4 4 4 4 4 3 4
6 5 9 5 3 6 7 5 6 5 6 6 6 7 7 6 4 3 4 4 5 6 7 7 11 15 13 12 11 9 8 5 4 5 5 4 3 3 5 6 5 5 4 5 4 4 5 4 5
4 8 4 6 7 4 3 6 5 6 5 3 6 7 6 5 6 7 8 8 10 12 11 10 12 12 10 10 9 8 7 7 6 4 3 5 5 3 7 6 6 5 5 6 5 5 6 5 5
5 5 7 4 3 3 5 2 3 3 3 4 4 4 6 8 7 8 7 7 7 7 8 8 8 7 6 6 7 6 6 4 4 5 4 4 4 4 5 6 6 7 6 6 5 4 4 5 5
1 5 2 8 3 4 1 1 4 3 4 6 6 7 7 7 7 6 7 6 6 6 6 5 5 6 8 7 6 7 6 6 5 6 4 3 4 5 6 6 6 6 6 7 7 5 6 5 4
5 6 5 5 2 1 3 2 4 3 4 4 5 5 5 5 6 5 5 5 4 4 4 6 7 6 5 6 5 4 5 5 5 5 6 6 5 6 7 6 6 6 6 6 6 6 6 5 4
5 3 7 6 4 5 1 6 5 8 6 2 6 5 2 2 3 4 5 4 5 5 6 5 5 5 6 5 5 6 6 5 5 4 5 5 5 6 6 6 6 6 7 7 7 7 7 6 7
1 2 3 6 3 2 3 5 2 5 2 2 6 4 2 2 3 5 5 4 5 5 4 4 5 5 5 5 5 5 5 6 6 6 6 6 6 5 6 6 6 7 6 6 8 9 9 9 9
Wind_Direction
117 115 93 34 54 58 338 285 297 277 329 211 113 138 181 161 166 219 354 166 132 142 158 167 172 173 169 160 152 146 137 126 117 107 107 107 104 105 92 88 88 87 78 53 38 37 36 37 37
132 96 49 63 76 54 292 272 18 239 20 97 83 90 105 266 86 103 114 146 140 143 149 160 173 174 171 166 159 160 158 156 143 134 127 108 46 15 354 350 7 18 26 34 35 30 27 22 21
136 43 65 89 114 146 238 287 252 339 137 125 121 117 134 210 351 171 135 137 130 142 146 166 177 178 177 175 173 178 175 175 174 169 168 173 296 305 313 314 318 338 0 5 15 21 15 11 10
172 25 29 81 138 226 208 283 182 254 167 63 131 74 48 274 152 172 133 136 135 145 157 180 181 184 185 184 184 190 188 188 191 194 201 213 229 254 278 292 310 321 341 356 2 11 14 21 16
16 58 47 39 315 260 248 229 158 204 342 66 51 113 119 98 108 130 139 147 154 170 179 184 187 188 192 193 197 198 197 204 214 217 232 246 276 288 290 291 294 298 338 7 6 14 23 30 32
29 81 48 359 284 285 277 202 135 178 323 59 85 104 184 58 128 151 145 157 165 170 175 198 194 193 198 202 204 201 197 203 219 228 241 277 296 293 292 292 293 310 346 2 1 6 29 33 43
109 78 188 185 276 309 251 137 164 148 186 261 154 120 343 278 183 145 151 151 147 151 161 198 204 205 206 208 208 206 207 214 216 228 242 254 273 292 297 296 300 305 344 355 359 30 47 38 37
110 91 110 252 234 263 217 157 134 142 234 81 126 172 214 211 137 111 87 103 108 131 195 222 230 209 201 196 212 210 210 217 227 239 269 288 291 305 294 281 280 296 336 345 73 55 46 46 35
121 65 199 233 173 230 158 153 17 159 120 198 198 167 209 121 128 141 146 141 139 181 218 276 294 296 291 235 214 217 223 227 224 225 216 337 303 296 290 275 265 261 282 114 81 58 52 45 41
100 130 224 204 210 190 157 168 166 138 137 258 190 69 95 132 163 155 173 157 49 29 25 28 356 345 333 316 291 226 230 220 132 123 165 287 286 279 298 281 264 239 141 116 88 59 58 50 51
169 205 213 230 228 118 141 182 176 131 215 215 202 149 146 156 185 162 74 63 106 89 75 319 150 208 340 330 320 306 322 9 76 160 298 280 262 275 340 322 48 125 137 109 112 94 83 97 83
270 247 219 272 179 135 138 157 221 191 214 209 189 155 148 152 80 81 88 113 128 127 194 157 205 188 105 357 300 297 303 264 200 212 233 236 256 279 271 258 154 186 149 156 156 111 124 95 62
194 270 218 285 153 85 122 167 200 241 251 229 144 131 118 94 96 92 112 100 80 78 281 32 40 64 85 276 256 263 279 266 246 199 240 233 231 245 228 234 218 192 173 180 172 196 132 85 9
224 260 3 20 104 94 112 99 88 263 112 105 123 98 80 95 109 95 65 91 117 190 268 95 119 147 158 234 267 311 274 268 234 235 227 225 212 228 242 257 246 235 219 198 209 222 178 120 7
326 350 6 35 34 68 131 6 268 329 80 106 92 82 73 71 66 74 88 151 175 241 221 200 205 182 98 216 259 308 301 262 255 261 211 223 212 225 239 242 240 241 228 231 165 281 354 36 313
47 49 25 356 54 14 17 221 338 333 144 144 90 89 81 62 74 91 165 171 6 288 139 200 310 66 194 242 357 305 292 278 256 242 245 231 222 222 227 243 238 227 227 220 185 245 258 226 194
9 25 17 32 23 99 50 324 325 346 94 75 72 93 104 88 106 152 164 235 274 37 12 49 21 18 347 355 320 301 283 270 272 290 292 352 341 343 318 291 325 322 310 264 251 244 256 274 329
300 352 72 48 330 62 52 27 353 9 38 53 77 104 108 98 54 357 230 251 306 346 26 16 8 360 335 308 270 267 284 261 309 320 352 351 355 341 330 323 325 326 302 305 300 267 236 316 355
147 75 72 154 230 67 21 56 22 12 36 38 70 110 100 79 70 124 235 341 317 333 3 347 341 355 15 345 308 288 302 312 6 3 7 5 357 344 331 308 321 347 307 276 277 304 314 302 68
64 94 62 27 73 92 68 30 346 24 19 37 107 132 105 103 264 306 307 238 40 10 11 353 324 324 311 298 323 297 289 352 43 37 31 23 9 344 320 300 291 268 249 273 248 165 255 283 195
359 205 164 155 109 59 49 37 12 350 17 28 23 82 102 166 145 19 3 23 4 17 330 334 320 317 328 349 292 340 335 47 20 17 356 359 353 355 5 1 35 70 114 289 247 225 231 249 270
54 337 171 122 75 93 11 155 1 339 4 34 7 25 93 92 32 1 16 360 341 328 326 327 336 333 7 332 28 44 23 28 17 11 344 324 358 2 9 7 4 359 353 323 300 307 278 260 273
89 46 50 101 89 71 355 78 291 354 357 1 359 1 27 15 11 3 355 335 321 332 335 329 339 4 21 31 38 52 66 43 9 7 4 359 1 16 14 8 5 2 354 328 315 321 288 244 256
145 70 43 56 76 53 312 108 305 2 312 333 353 7 22 22 12 358 334 353 356 357 351 11 40 37 35 40 41 49 50 37 29 10 7 354 344 357 6 359 2 356 344 329 317 307 282 270 254
90 66 2 9 20 190 298 57 229 319 330 340 331 353 11 27 21 12 13 16 30 27 24 31 35 36 30 42 42 40 43 39 32 7 351 357 353 349 355 359 353 343 333 326 318 305 292 281 267
35 118 147 193 184 232 5 108 264 291 338 21 20 7 17 20 20 30 28 34 29 24 28 41 43 46 33 43 40 31 30 26 17 11 1 356 347 333 330 337 342 335 329 316 306 294 292 286 279
132 48 164 105 18 70 241 324 296 1 21 22 8 33 23 29 35 34 32 33 35 34 42 63 76 54 37 30 25 23 16 15 3 352 348 334 326 331 333 332 326 321 323 335 333 317 307 303 291
99 155 56 18 126 188 290 243 225 228 227 287 348 13 15 29 33 18 21 31 26 43 52 51 43 46 29 27 18 14 10 7 357 353 351 343 332 340 337 330 330 329 336 335 330 315 305 299 297
348 27 55 109 115 154 183 260 211 203 221 325 298 324 19 80 30 359 21 27 32 42 42 44 47 39 25 18 6 7 352 348 347 347 339 338 332 337 334 337 334 337 333 330 329 318 295 298 289
197 98 102 112 224 69 135 280 27 196 196 237 294 333 85 74 18 351 355 360 28 33 51 52 43 31 16 1 358 355 348 352 355 345 340 343 340 339 347 352 345 332 323 326 326 312 307 310 306